[[{"header":{"parameterUnit":"m.s-1","parameterCategory":1,"la1":30.2991,"la2":30.254,"lo1":-89.0895,"lo2":-89.0444,"dx":0.0017,"dy":0.0017,"nx":28,"ny":28,"refTime":"2022-11-07T03:00:00:Z","depth":0,"parameterNumber":2,"parameterNumberName":"U-component_of_WINDS"},"data":[0,0,0,0,0,0,0,0,0,0,0,0,0,0,0,0,0,0,0,0,0,0,0,0,0,0,0,0,0,0,0,0,0,0,0,0,0,0,0,0,0,0,0,0,0,0,0,0,0,0,0,0,0,0,0,0,0,0,-0.6606,-0.6605,0,-0.6494,-0.6493,-0.6491,-0.6478,-0.6479,-0.648,-0.6481,-0.6365,-0.6361,-0.6357,0,0,0,0,0,0,0,0,0,0,0,0,0,-0.6808,-0.6805,-0.6606,-0.6605,-0.6603,-0.6494,-0.6493,-0.6491,-0.6478,-0.6479,-0.648,-0.6481,-0.6367,-0.6362,-0.6357,0,0,0,0,0,0,0,0,0,0,0,0,0,-0.6711,-0.6804,-0.6606,-0.6583,-0.658,-0.6494,-0.6493,-0.6491,-0.6477,-0.6479,-0.6481,-0.6482,-0.6368,-0.6362,-0.6356,-0.6285,0,0,-0.6337,-0.6335,0,0,0,0,0,0,0,0,-0.6716,-0.6703,-0.6588,-0.6585,-0.6581,-0.6502,-0.6522,-0.6422,-0.6477,-0.6516,-0.6481,-0.6483,-0.6409,-0.64,-0.6375,-0.628,-0.6275,-0.6337,-0.6333,-0.633,-0.6329,0,0,0,0,0,0,0,-0.6723,-0.6708,-0.6562,-0.6586,-0.6582,-0.6579,-0.6567,-0.6503,-0.6455,-0.6513,-0.6512,-0.6499,-0.6408,-0.6381,-0.6372,-0.6273,-0.6337,-0.6331,-0.6328,-0.6325,-0.6117,-0.6115,0,0,0,0,0,0,-0.6734,-0.6714,-0.6565,-0.6558,-0.6654,-0.6574,-0.656,-0.6525,-0.6455,-0.6446,-0.6497,-0.6498,-0.6391,-0.6379,-0.6368,-0.6282,-0.633,-0.6325,-0.6321,-0.6118,-0.6116,-0.6114,0,0,0,0,0,0,-0.6739,-0.6721,-0.657,-0.6636,-0.6616,-0.6569,-0.6529,-0.6522,-0.6496,-0.6444,-0.6435,-0.6479,-0.6392,-0.6377,-0.6307,-0.6278,-0.6322,-0.6316,-0.6121,-0.6118,-0.6115,-0.6109,0,0,0,0,0,0,-0.6745,-0.6723,-0.6695,-0.6635,-0.6613,-0.651,-0.6528,-0.6519,-0.6485,-0.6486,-0.6424,-0.6416,-0.6392,-0.6316,-0.63,-0.627,-0.6311,-0.6123,-0.6119,-0.6116,-0.6112,-0.6106,-0.6102,0,0,0,0,0,-0.6752,-0.6697,-0.6694,-0.6676,-0.6577,-0.6508,-0.6495,-0.6469,-0.6483,-0.6455,-0.6422,-0.6418,-0.6284,-0.6309,-0.6291,-0.6259,-0.6125,-0.612,-0.6116,-0.6114,-0.6107,-0.6102,0,0,0,0,0,0,-0.6754,-0.6689,-0.6684,-0.6609,-0.6564,-0.6506,-0.647,-0.6463,-0.6413,-0.6416,-0.6385,-0.6371,-0.6303,-0.6274,-0.6303,-0.6188,-0.6205,-0.6198,-0.621,-0.6203,-0.6198,-0.6207,-0.6306,0,0,0,0,0,-0.6746,-0.6695,-0.6641,-0.6579,-0.6557,-0.6518,-0.6486,-0.647,-0.6423,-0.6404,-0.6366,-0.632,-0.6267,-0.6233,-0.6182,-0.6107,-0.6095,-0.6077,-0.6072,-0.6068,-0.6062,-0.6022,-0.6014,-0.6101,-0.6101,-0.6101,0,0,-0.6728,-0.6686,-0.6656,-0.6579,-0.6542,-0.6491,-0.6502,-0.6447,-0.6409,-0.6395,-0.6327,-0.6298,-0.6245,-0.6172,-0.6139,-0.6146,-0.6035,-0.6063,-0.606,-0.6056,-0.6017,-0.6009,-0.6002,-0.6098,-0.6098,-0.6099,0,0,-0.667,-0.6632,-0.6578,-0.6542,-0.6487,-0.6462,-0.6449,-0.6392,-0.6372,-0.6303,-0.6293,-0.6247,-0.6157,-0.6121,-0.609,-0.602,-0.6015,-0.6004,-0.598,-0.5941,-0.5935,-0.5928,-0.5905,-0.5897,-0.5998,-0.5998,-0.5998,0,-0.6655,-0.6577,-0.6551,-0.6497,-0.6464,-0.6451,-0.6396,-0.6362,-0.6293,-0.6271,-0.628,-0.6169,-0.6132,-0.6052,-0.6035,-0.601,-0.5996,-0.6012,-0.5938,-0.5931,-0.5925,-0.5903,-0.5894,-0.5998,-0.5998,-0.5998,-0.5998,0,-0.6562,-0.6509,-0.6471,-0.6407,-0.6369,-0.6315,-0.6281,-0.6247,-0.6234,-0.6208,-0.6139,-0.6095,-0.6036,-0.6015,-0.6002,-0.5934,-0.594,-0.5944,-0.5961,-0.5917,-0.5895,-0.5886,-0.5996,-0.5997,-0.5997,-0.5997,0,0,-0.6501,-0.6424,-0.6411,-0.6383,-0.6322,-0.628,-0.6226,-0.6169,-0.6141,-0.6094,-0.6049,-0.5974,-0.5978,-0.5943,-0.5926,-0.5892,-0.5842,-0.59,-0.5898,-0.5892,-0.5767,-0.5765,-0.5756,-0.5838,-0.5836,-0.5835,-0.5772,0,-0.6437,-0.6341,-0.6317,-0.6235,-0.6186,-0.6174,-0.6127,-0.6085,-0.6059,-0.6014,-0.5986,-0.5934,-0.5942,-0.5921,-0.5887,-0.5856,-0.5817,-0.586,-0.5797,-0.5795,-0.5812,-0.5744,-0.5742,-0.5684,-0.5763,-0.5761,-0.576,0,-0.635,-0.6303,-0.6216,-0.6164,-0.6143,-0.6101,-0.6048,-0.6005,-0.5958,-0.5941,-0.5904,-0.589,-0.5835,-0.5855,-0.5778,-0.5808,-0.578,-0.5761,-0.5758,-0.5752,-0.5776,-0.5737,-0.5665,-0.5657,-0.5746,-0.5748,-0.5749,0,-0.6316,-0.6231,-0.6169,-0.6145,-0.6082,-0.6053,-0.6026,-0.598,-0.5948,-0.5901,-0.5881,-0.5828,-0.5799,-0.5759,-0.5732,-0.5748,-0.5658,-0.5675,-0.5644,-0.5645,-0.5626,-0.5627,-0.5549,-0.5606,-0.5606,-0.5607,-0.5607,0,-0.6248,-0.6196,-0.6154,-0.6115,-0.6057,-0.603,-0.5973,-0.5945,-0.5906,-0.5862,-0.5848,-0.5808,-0.5774,-0.5729,-0.5708,-0.5649,-0.5635,-0.5621,-0.5616,-0.5623,-0.5625,-0.5605,-0.5609,-0.5604,-0.5605,-0.5605,-0.5606,0,-0.6201,-0.617,-0.6102,-0.6049,-0.6034,-0.5994,-0.5949,-0.5912,-0.5886,-0.5832,-0.5817,-0.5777,-0.5724,-0.5693,-0.5625,-0.5611,-0.5546,-0.5542,-0.5562,-0.556,-0.5532,-0.5535,-0.5439,-0.5426,-0.549,-0.549,-0.5489,0,-0.616,-0.612,-0.6063,-0.6034,-0.6006,-0.5958,-0.5926,-0.5898,-0.5865,-0.581,-0.5779,-0.5726,-0.5681,-0.5597,-0.5562,-0.5511,-0.5507,-0.5477,-0.5499,-0.5508,-0.5508,-0.5512,-0.5508,-0.5473,-0.5473,-0.5472,-0.5472,0,-0.6091,-0.6079,-0.6033,-0.5982,-0.5944,-0.5902,-0.5861,-0.5837,-0.5803,-0.5767,-0.5713,-0.5679,-0.5611,-0.5558,-0.5505,-0.5477,-0.5469,-0.5465,-0.5455,-0.5463,-0.5477,-0.547,-0.5553,-0.5467,-0.5468,-0.5468,-0.5468,-0.5469,-0.6047,-0.6012,-0.5967,-0.5917,-0.5883,-0.5845,-0.5808,-0.5779,-0.5734,-0.5677,-0.5663,-0.5607,-0.5563,-0.549,-0.5461,-0.5417,-0.5422,-0.5408,-0.5405,-0.5402,-0.5402,-0.5483,-0.5407,-0.5407,-0.5407,-0.5407,-0.5407,0,-0.5979,-0.595,-0.5904,-0.5847,-0.5808,-0.5805,-0.5759,-0.5727,-0.5678,-0.5638,-0.5595,-0.5534,-0.5483,-0.5445,-0.5394,-0.5366,-0.5361,-0.5353,-0.5356,-0.535,-0.5399,-0.5414,-0.5358,-0.5358,-0.5358,-0.5358,-0.5358,-0.5358,-0.5939,-0.588,-0.5862,-0.5786,-0.5757,-0.5703,-0.5678,-0.5643,-0.5611,-0.5544,-0.5502,-0.5478,-0.5439,-0.5384,-0.5338,-0.5328,-0.5311,-0.5304,-0.5294,-0.5341,-0.5346,-0.5351,-0.5365,-0.53,-0.53,-0.5248,-0.5248,-0.5247]},{"header":{"parameterUnit":"m.s-1","parameterCategory":1,"la1":30.2991,"la2":30.254,"lo1":-89.0895,"lo2":-89.0444,"dx":0.0017,"dy":0.0017,"nx":28,"ny":28,"refTime":"2022-11-07T03:00:00:Z","depth":0,"parameterNumber":3,"parameterNumberName":"V-component_of_WINDS"},"data":[0,0,0,0,0,0,0,0,0,0,0,0,0,0,0,0,0,0,0,0,0,0,0,0,0,0,0,0,0,0,0,0,0,0,0,0,0,0,0,0,0,0,0,0,0,0,0,0,0,0,0,0,0,0,0,0,0,0,0.1543,0.1543,0,0.1548,0.1548,0.1548,0.1508,0.1507,0.1506,0.1505,0.1509,0.151,0.1512,0,0,0,0,0,0,0,0,0,0,0,0,0,0.1499,0.15,0.1543,0.1543,0.1543,0.1548,0.1548,0.1548,0.1508,0.1507,0.1505,0.1504,0.1509,0.151,0.1512,0,0,0,0,0,0,0,0,0,0,0,0,0,0.1512,0.15,0.1543,0.1524,0.1522,0.1548,0.1548,0.1548,0.1508,0.1507,0.1505,0.1503,0.1508,0.151,0.1512,0.1556,0,0,0.1517,0.1518,0,0,0,0,0,0,0,0,0.1511,0.1514,0.1527,0.1525,0.1523,0.1525,0.1534,0.1551,0.1509,0.1514,0.1504,0.1503,0.1516,0.1517,0.1522,0.1556,0.1557,0.1517,0.1518,0.1519,0.152,0,0,0,0,0,0,0,0.1511,0.1513,0.1545,0.1527,0.1525,0.1515,0.1515,0.1537,0.1524,0.1513,0.151,0.1511,0.1515,0.152,0.1521,0.1557,0.1517,0.1519,0.152,0.1521,0.1625,0.1626,0,0,0,0,0,0,0.1512,0.1513,0.1545,0.1545,0.1513,0.1517,0.1517,0.1527,0.1524,0.1522,0.1513,0.1509,0.1518,0.1519,0.1521,0.157,0.1519,0.1521,0.1522,0.1623,0.1625,0.1627,0,0,0,0,0,0,0.1512,0.1516,0.1545,0.1528,0.1531,0.1519,0.1531,0.1528,0.1533,0.1523,0.1521,0.152,0.1517,0.1519,0.1547,0.157,0.1522,0.1523,0.1621,0.1624,0.1626,0.167,0,0,0,0,0,0,0.151,0.1516,0.1532,0.1529,0.1532,0.1571,0.1532,0.1529,0.1536,0.1531,0.153,0.1528,0.1515,0.1545,0.1549,0.1571,0.1525,0.1619,0.1622,0.1625,0.1666,0.1674,0.168,0,0,0,0,0,0.1509,0.1545,0.1534,0.1538,0.1553,0.1572,0.1574,0.1558,0.1538,0.1554,0.1548,0.1528,0.1568,0.1548,0.1552,0.1576,0.1617,0.1621,0.1625,0.1663,0.1672,0.168,0,0,0,0,0,0,0.1552,0.1545,0.1531,0.1568,0.1571,0.1565,0.1585,0.1569,0.1578,0.1574,0.1554,0.1554,0.1585,0.1584,0.1562,0.1617,0.1589,0.1594,0.1616,0.1625,0.1631,0.163,0.1526,0,0,0,0,0,0.1566,0.1582,0.1575,0.1608,0.161,0.1598,0.1605,0.1593,0.1595,0.1597,0.1593,0.1596,0.1608,0.1617,0.1628,0.1667,0.1664,0.1685,0.1692,0.1698,0.1701,0.1718,0.1726,0.164,0.164,0.164,0,0,0.1595,0.1593,0.1604,0.1616,0.1617,0.1633,0.1599,0.1618,0.1629,0.16,0.1624,0.1622,0.1624,0.1657,0.1671,0.1656,0.1725,0.1702,0.1707,0.1707,0.1723,0.1731,0.1739,0.1642,0.1642,0.1641,0,0,0.1654,0.1656,0.1681,0.1683,0.1684,0.1676,0.1682,0.1679,0.1675,0.1701,0.1678,0.1691,0.1715,0.1716,0.1719,0.1778,0.1759,0.1783,0.1817,0.1834,0.1841,0.1847,0.1865,0.1872,0.1787,0.1787,0.1787,0,0.169,0.1713,0.1697,0.1717,0.1722,0.1695,0.172,0.1723,0.1728,0.1732,0.1716,0.1742,0.1742,0.1773,0.1787,0.1793,0.1797,0.1782,0.1842,0.1847,0.1853,0.1869,0.1876,0.179,0.179,0.1789,0.1789,0,0.1754,0.1771,0.1792,0.1796,0.1804,0.1827,0.1813,0.1823,0.1811,0.1803,0.1828,0.1827,0.1836,0.1844,0.1832,0.1872,0.1863,0.1845,0.1815,0.1864,0.1879,0.1885,0.1794,0.1793,0.1792,0.1791,0,0,0.184,0.1835,0.1842,0.1843,0.1842,0.1854,0.1876,0.1884,0.1892,0.1897,0.1912,0.1932,0.1914,0.1918,0.1907,0.1922,0.1965,0.1902,0.1902,0.1911,0.2006,0.2017,0.2025,0.1954,0.1955,0.1956,0.2005,0,0.1895,0.193,0.1915,0.1951,0.1965,0.194,0.1958,0.1959,0.1953,0.1963,0.1957,0.197,0.1947,0.1949,0.1964,0.1957,0.1983,0.1954,0.1966,0.1967,0.1963,0.2034,0.2046,0.2092,0.2011,0.2012,0.2013,0,0.1964,0.197,0.2007,0.2001,0.2006,0.2023,0.2028,0.2039,0.204,0.2034,0.2039,0.2023,0.2042,0.2015,0.204,0.202,0.2024,0.2022,0.2023,0.2021,0.199,0.203,0.2107,0.2112,0.2023,0.2022,0.2021,0,0.2018,0.2036,0.2059,0.2061,0.2057,0.2068,0.2067,0.2066,0.2071,0.2076,0.2079,0.2087,0.2091,0.2097,0.2084,0.2066,0.2109,0.2082,0.2103,0.2103,0.2111,0.211,0.2186,0.212,0.212,0.2119,0.2119,0,0.208,0.2102,0.2083,0.2097,0.2121,0.2105,0.2129,0.2125,0.2124,0.2136,0.2117,0.2128,0.2111,0.2121,0.2111,0.2131,0.2134,0.2129,0.2125,0.2129,0.2129,0.2129,0.2124,0.2121,0.2121,0.212,0.212,0,0.2143,0.2132,0.2155,0.2149,0.2147,0.2165,0.2159,0.2171,0.2164,0.218,0.2182,0.2171,0.2181,0.2169,0.2179,0.2172,0.2199,0.2192,0.2198,0.2195,0.2216,0.2213,0.2292,0.23,0.2232,0.2232,0.2233,0,0.2181,0.2198,0.2192,0.2199,0.2198,0.2209,0.2214,0.2199,0.2205,0.2206,0.2217,0.2226,0.2232,0.225,0.2242,0.2249,0.224,0.2267,0.2241,0.2243,0.2237,0.2234,0.2235,0.2272,0.2273,0.2273,0.2274,0,0.2249,0.2242,0.225,0.2255,0.2262,0.2265,0.2268,0.2274,0.2258,0.2266,0.2276,0.228,0.2289,0.2297,0.2302,0.23,0.2284,0.2283,0.2287,0.2289,0.2291,0.2287,0.2209,0.228,0.228,0.2279,0.2279,0.2278,0.2299,0.2311,0.2308,0.2317,0.2317,0.2319,0.2329,0.2323,0.2331,0.2337,0.2328,0.234,0.2338,0.2342,0.2342,0.2351,0.2339,0.2347,0.2348,0.2349,0.2351,0.2292,0.2352,0.2352,0.2352,0.2352,0.2352,0,0.2362,0.2359,0.2368,0.237,0.2377,0.2362,0.2363,0.2369,0.238,0.238,0.2386,0.2396,0.2404,0.2396,0.2402,0.241,0.2403,0.2412,0.241,0.2409,0.2363,0.2357,0.2418,0.2418,0.2418,0.2418,0.2418,0.2418,0.2396,0.2415,0.2408,0.2426,0.2423,0.2434,0.2435,0.2437,0.2436,0.2449,0.2454,0.245,0.2446,0.2451,0.2457,0.2455,0.2457,0.2468,0.2463,0.2419,0.2413,0.2406,0.24,0.2469,0.2469,0.2507,0.2508,0.2508]}]]